2021-09-29 00:03:11 r, 20.77m,0000000000Hz,0001099207c,0000002.385s, 032.8C,00002191
2021-09-29 00:13:11 r, 20.71m,0000000000Hz,0001036761c,0000002.250s, 032.8C,00002191
2021-09-29 00:23:13 r, 20.62m,0000000001Hz,0000955327c,0000002.073s, 032.8C,00002191
2021-09-29 00:33:10 r, 20.46m,0000000000Hz,0000823697c,0000001.788s, 032.5C,00002191
2021-09-29 00:43:13 r, 20.28m,0000000001Hz,0000701505c,0000001.522s, 032.5C,00002191
2021-09-29 00:53:11 r, 20.38m,0000000001Hz,0000767081c,0000001.665s, 032.5C,00002191
2021-09-29 01:03:11 r, 20.40m,0000000001Hz,0000782191c,0000001.697s, 032.2C,00002191
2021-09-29 01:13:13 r, 20.45m,0000000001Hz,0000819747c,0000001.779s, 032.2C,00002191
2021-09-29 01:23:12 r, 20.50m,0000000000Hz,0000857347c,0000001.861s, 031.9C,00002191
2021-09-29 01:33:11 r, 20.45m,0000000000Hz,0000820594c,0000001.781s, 031.9C,00002191
2021-09-29 01:43:11 r, 20.43m,0000000000Hz,0000800562c,0000001.737s, 031.5C,00002191
2021-09-29 01:53:12 r, 20.41m,0000000001Hz,0000793851c,0000001.723s, 031.5C,00002191
2021-09-29 02:03:11 r, 20.40m,0000000001Hz,0000778635c,0000001.690s, 031.2C,00002191
2021-09-29 02:13:12 r, 20.36m,0000000001Hz,0000755439c,0000001.639s, 031.2C,00002191
2021-09-29 02:23:11 r, 20.32m,0000000001Hz,0000732318c,0000001.589s, 030.9C,00002191
2021-09-29 02:33:11 r, 20.29m,0000000001Hz,0000710317c,0000001.541s, 030.9C,00002191
2021-09-29 02:43:13 r, 20.25m,0000000001Hz,0000685238c,0000001.487s, 030.9C,00002191
2021-09-29 02:53:11 r, 20.20m,0000000001Hz,0000659403c,0000001.431s, 030.6C,00002191
2021-09-29 03:03:11 r, 20.16m,0000000001Hz,0000634598c,0000001.377s, 030.6C,00002191
2021-09-29 03:13:11 r, 20.12m,0000000001Hz,0000611264c,0000001.327s, 030.6C,00002191
2021-09-29 03:23:11 r, 20.08m,0000000001Hz,0000587295c,0000001.275s, 030.6C,00002191
2021-09-29 03:33:11 r, 20.03m,0000000001Hz,0000562399c,0000001.220s, 030.6C,00002191
2021-09-29 03:43:11 r, 19.98m,0000000001Hz,0000540474c,0000001.173s, 030.6C,00002191
2021-09-29 03:53:12 r, 19.94m,0000000001Hz,0000514614c,0000001.117s, 030.2C,00002191
2021-09-29 04:03:11 r, 19.88m,0000000001Hz,0000488288c,0000001.060s, 030.2C,00002191
2021-09-29 04:13:11 r, 19.81m,0000000001Hz,0000462741c,0000001.004s, 030.2C,00002191
2021-09-29 04:23:13 r, 19.74m,0000000001Hz,0000433966c,0000000.942s, 030.2C,00002191
2021-09-29 04:33:11 r, 19.66m,0000000002Hz,0000403102c,0000000.875s, 029.9C,00002191
2021-09-29 04:43:11 r, 19.58m,0000000001Hz,0000372277c,0000000.808s, 029.9C,00002191
2021-09-29 04:53:13 r, 19.48m,0000000001Hz,0000340742c,0000000.739s, 029.9C,00002191
2021-09-29 05:03:11 r, 19.36m,0000000002Hz,0000304571c,0000000.661s, 029.9C,00002191
2021-09-29 05:13:11 r, 19.21m,0000000002Hz,0000265882c,0000000.577s, 029.9C,00002191
2021-09-29 05:23:12 r, 18.98m,0000000002Hz,0000214137c,0000000.465s, 029.9C,00002191
2021-09-29 05:33:11 r, 18.72m,0000000003Hz,0000169018c,0000000.367s, 029.9C,00002191
2021-09-29 05:43:11 r, 18.46m,0000000003Hz,0000133201c,0000000.289s, 029.6C,00002191
2021-09-29 05:53:11 r, 18.23m,0000000004Hz,0000107685c,0000000.234s, 029.6C,00002191
2021-09-29 06:03:11 r, 18.03m,0000000005Hz,0000089383c,0000000.194s, 029.6C,00002191
2021-09-29 06:13:11 r, 17.81m,0000000007Hz,0000072868c,0000000.158s, 029.6C,00002191
2021-09-29 06:23:13 r, 17.49m,0000000008Hz,0000054478c,0000000.118s, 029.3C,00002191
2021-09-29 06:33:11 r, 16.86m,0000000015Hz,0000030271c,0000000.066s, 029.3C,00002191
2021-09-29 06:43:11 r, 15.57m,0000000049Hz,0000009305c,0000000.020s, 029.3C,00002191
2021-09-29 06:53:13 r, 13.66m,0000000291Hz,0000000000c,0000000.000s, 029.0C,00002191
2021-09-29 07:03:11 r, 11.49m,0000002152Hz,0000000000c,0000000.000s, 028.6C,00002191
2021-09-29 07:13:11 r, 09.53m,0000013031Hz,0000000000c,0000000.000s, 029.0C,00002191
2021-09-29 07:23:12 r, 08.16m,0000046026Hz,0000000000c,0000000.000s, 028.6C,00002191
2021-09-29 07:33:11 r, 07.26m,0000105789Hz,0000000000c,0000000.000s, 029.0C,00002191
2021-09-29 07:43:11 r, 06.64m,0000186932Hz,0000000000c,0000000.000s, 029.0C,00002191
2021-09-29 07:53:12 r, 06.21m,0000277197Hz,0000000000c,0000000.000s, 029.3C,00002191
2021-09-29 08:03:11 r, 05.89m,0000374725Hz,0000000000c,0000000.000s, 029.6C,00002191
2021-09-29 08:13:11 r, 00.00m,0000468303Hz,0000000000c,0000000.000s, 030.2C,00002191
2021-09-29 08:23:12 r, 00.00m,0000558947Hz,0000000000c,0000000.000s, 030.6C,00002191
2021-09-29 08:33:11 r, 00.00m,0000596071Hz,0000000000c,0000000.000s, 031.2C,00002191
2021-09-29 08:43:11 r, 00.00m,0000596014Hz,0000000000c,0000000.000s, 032.2C,00002191
2021-09-29 08:53:13 r, 00.00m,0000595964Hz,0000000000c,0000000.000s, 032.5C,00002191
2021-09-29 09:03:11 r, 00.00m,0000595843Hz,0000000000c,0000000.000s, 033.5C,00002191
2021-09-29 09:13:11 r, 00.00m,0000595671Hz,0000000000c,0000000.000s, 034.1C,00002191
2021-09-29 09:23:13 r, 00.00m,0000595743Hz,0000000000c,0000000.000s, 034.4C,00002191
2021-09-29 09:33:11 r, 00.00m,0000595626Hz,0000000000c,0000000.000s, 034.8C,00002191
2021-09-29 09:43:11 r, 00.00m,0000595558Hz,0000000000c,0000000.000s, 034.8C,00002191
2021-09-29 09:53:12 r, 00.00m,0000595626Hz,0000000000c,0000000.000s, 035.1C,00002191
2021-09-29 10:03:11 r, 00.00m,0000595552Hz,0000000000c,0000000.000s, 035.1C,00002191
2021-09-29 10:13:11 r, 00.00m,0000595593Hz,0000000000c,0000000.000s, 035.4C,00002191
2021-09-29 10:23:12 r, 00.00m,0000595503Hz,0000000000c,0000000.000s, 036.0C,00002191
2021-09-29 10:33:12 r, 00.00m,0000595491Hz,0000000000c,0000000.000s, 036.7C,00002191
2021-09-29 10:43:11 r, 00.00m,0000595326Hz,0000000000c,0000000.000s, 037.3C,00002191
2021-09-29 10:53:13 r, 00.00m,0000595199Hz,0000000000c,0000000.000s, 038.3C,00002191
2021-09-29 11:03:12 r, 00.00m,0000595172Hz,0000000000c,0000000.000s, 039.3C,00002191
2021-09-29 11:13:12 r, 00.00m,0000595000Hz,0000000000c,0000000.000s, 039.9C,00002191
2021-09-29 11:23:13 r, 00.00m,0000595033Hz,0000000000c,0000000.000s, 040.2C,00002191
2021-09-29 11:33:12 r, 00.00m,0000595038Hz,0000000000c,0000000.000s, 040.2C,00002191
2021-09-29 11:43:11 r, 00.00m,0000594978Hz,0000000000c,0000000.000s, 040.9C,00002191
2021-09-29 11:53:12 r, 00.00m,0000594912Hz,0000000000c,0000000.000s, 041.2C,00002191
2021-09-29 12:03:12 r, 00.00m,0000594903Hz,0000000000c,0000000.000s, 041.9C,00002191
2021-09-29 12:13:11 r, 00.00m,0000594681Hz,0000000000c,0000000.000s, 042.2C,00002191
2021-09-29 12:23:13 r, 00.00m,0000594721Hz,0000000000c,0000000.000s, 042.5C,00002191
2021-09-29 12:33:12 r, 00.00m,0000594713Hz,0000000000c,0000000.000s, 042.8C,00002191
2021-09-29 12:43:11 r, 00.00m,0000594722Hz,0000000000c,0000000.000s, 043.1C,00002191
2021-09-29 12:53:12 r, 00.00m,0000594539Hz,0000000000c,0000000.000s, 043.8C,00002191
2021-09-29 13:03:13 r, 00.00m,0000594698Hz,0000000000c,0000000.000s, 043.5C,00002191
2021-09-29 13:13:12 r, 00.00m,0000594534Hz,0000000000c,0000000.000s, 043.5C,00002191
2021-09-29 13:23:12 r, 00.00m,0000594591Hz,0000000000c,0000000.000s, 044.1C,00002191
2021-09-29 13:33:12 r, 00.00m,0000594516Hz,0000000000c,0000000.000s, 044.4C,00002191
2021-09-29 13:43:11 r, 00.00m,0000594455Hz,0000000000c,0000000.000s, 045.7C,00002191
2021-09-29 13:53:13 r, 00.00m,0000593925Hz,0000000000c,0000000.000s, 048.3C,00002191
2021-09-29 14:03:12 r, 00.00m,0000593692Hz,0000000000c,0000000.000s, 050.2C,00002191
2021-09-29 14:13:13 r, 00.00m,0000593439Hz,0000000000c,0000000.000s, 051.5C,00002191
2021-09-29 14:23:12 r, 00.00m,0000593384Hz,0000000000c,0000000.000s, 051.8C,00002191
2021-09-29 14:33:14 r, 00.00m,0000593339Hz,0000000000c,0000000.000s, 052.2C,00002191
2021-09-29 14:43:11 r, 00.00m,0000593280Hz,0000000000c,0000000.000s, 052.2C,00002191
2021-09-29 14:53:12 r, 00.00m,0000593374Hz,0000000000c,0000000.000s, 052.2C,00002191
2021-09-29 15:03:12 r, 00.00m,0000593590Hz,0000000000c,0000000.000s, 050.9C,00002191
2021-09-29 15:13:11 r, 00.00m,0000593773Hz,0000000000c,0000000.000s, 048.9C,00002191
2021-09-29 15:23:14 r, 00.00m,0000593801Hz,0000000000c,0000000.000s, 048.9C,00002191
2021-09-29 15:33:12 r, 00.00m,0000593863Hz,0000000000c,0000000.000s, 048.0C,00002191
2021-09-29 15:43:11 r, 00.00m,0000593940Hz,0000000000c,0000000.000s, 047.3C,00002191
2021-09-29 15:53:14 r, 00.00m,0000593967Hz,0000000000c,0000000.000s, 047.0C,00002191
2021-09-29 16:03:12 r, 00.00m,0000593912Hz,0000000000c,0000000.000s, 047.0C,00002191
2021-09-29 16:13:11 r, 00.00m,0000593993Hz,0000000000c,0000000.000s, 046.4C,00002191
2021-09-29 16:23:12 r, 00.00m,0000593883Hz,0000000000c,0000000.000s, 047.3C,00002191
2021-09-29 16:33:14 r, 00.00m,0000593924Hz,0000000000c,0000000.000s, 047.7C,00002191
2021-09-29 16:43:11 r, 00.00m,0000594127Hz,0000000000c,0000000.000s, 046.4C,00002191
2021-09-29 16:53:13 r, 00.00m,0000594340Hz,0000000000c,0000000.000s, 045.1C,00002191
2021-09-29 17:03:12 r, 00.00m,0000594532Hz,0000000000c,0000000.000s, 043.8C,00002191
2021-09-29 17:13:11 r, 00.00m,0000594634Hz,0000000000c,0000000.000s, 043.1C,00002191
2021-09-29 17:23:14 r, 00.00m,0000594614Hz,0000000000c,0000000.000s, 042.8C,00002191
2021-09-29 17:33:12 r, 00.00m,0000594629Hz,0000000000c,0000000.000s, 042.5C,00002191
2021-09-29 17:43:11 r, 00.00m,0000594614Hz,0000000000c,0000000.000s, 042.5C,00002191
2021-09-29 17:53:14 r, 00.00m,0000594705Hz,0000000000c,0000000.000s, 042.2C,00002191
2021-09-29 18:03:12 r, 00.00m,0000594689Hz,0000000000c,0000000.000s, 042.2C,00002191
2021-09-29 18:13:11 r, 00.00m,0000594763Hz,0000000000c,0000000.000s, 041.5C,00002191
2021-09-29 18:23:12 r, 00.00m,0000594826Hz,0000000000c,0000000.000s, 041.5C,00002191
2021-09-29 18:33:12 r, 00.00m,0000594873Hz,0000000000c,0000000.000s, 041.2C,00002191
2021-09-29 18:43:11 r, 06.11m,0000303776Hz,0000000000c,0000000.000s, 040.6C,00002191
2021-09-29 18:53:12 r, 06.45m,0000221785Hz,0000000000c,0000000.000s, 040.2C,00002191
2021-09-29 19:03:14 r, 07.37m,0000094781Hz,0000000000c,0000000.000s, 039.9C,00002191
2021-09-29 19:13:11 r, 08.43m,0000036053Hz,0000000000c,0000000.000s, 039.3C,00002191
2021-09-29 19:23:14 r, 09.75m,0000010671Hz,0000000000c,0000000.000s, 038.6C,00002191
2021-09-29 19:33:12 r, 11.80m,0000001614Hz,0000000000c,0000000.000s, 038.3C,00002191
2021-09-29 19:43:11 r, 14.02m,0000000208Hz,0000000000c,0000000.000s, 038.0C,00002191
2021-09-29 19:53:11 r, 16.39m,0000000024Hz,0000019833c,0000000.043s, 037.7C,00002191
2021-09-29 20:03:12 r, 18.23m,0000000004Hz,0000107618c,0000000.234s, 037.0C,00002191
2021-09-29 20:13:11 r, 19.32m,0000000001Hz,0000294021c,0000000.638s, 036.4C,00002191
2021-09-29 20:23:11 r, 19.83m,0000000001Hz,0000463861c,0000001.007s, 035.4C,00002191
2021-09-29 20:33:13 r, 19.78m,0000000001Hz,0000442869c,0000000.961s, 034.8C,00002191
2021-09-29 20:43:11 r, 19.65m,0000000001Hz,0000396619c,0000000.861s, 034.4C,00002191
2021-09-29 20:53:11 r, 19.48m,0000000002Hz,0000338947c,0000000.736s, 034.1C,00002191
2021-09-29 21:03:14 r, 19.11m,0000000002Hz,0000239069c,0000000.519s, 033.8C,00002191
2021-09-29 21:13:11 r, 18.98m,0000000002Hz,0000212282c,0000000.461s, 033.5C,00002191
2021-09-29 21:23:11 r, 19.08m,0000000002Hz,0000233249c,0000000.506s, 033.1C,00002191
2021-09-29 21:33:12 r, 18.78m,0000000002Hz,0000178175c,0000000.387s, 032.8C,00002191
2021-09-29 21:43:11 r, 18.75m,0000000003Hz,0000172839c,0000000.375s, 032.8C,00002191
2021-09-29 21:53:11 r, 18.76m,0000000002Hz,0000174782c,0000000.379s, 032.5C,00002191
2021-09-29 22:03:12 r, 18.83m,0000000002Hz,0000185028c,0000000.402s, 032.5C,00002191
2021-09-29 22:13:11 r, 18.83m,0000000002Hz,0000186357c,0000000.404s, 032.5C,00002191
2021-09-29 22:23:11 r, 18.74m,0000000003Hz,0000171914c,0000000.373s, 032.2C,00002191
2021-09-29 22:33:13 r, 18.81m,0000000002Hz,0000180639c,0000000.392s, 032.2C,00002191
2021-09-29 22:43:11 r, 18.82m,0000000002Hz,0000184182c,0000000.400s, 032.2C,00002191
2021-09-29 22:53:11 r, 18.74m,0000000003Hz,0000170732c,0000000.371s, 032.2C,00002191
2021-09-29 23:03:14 r, 18.86m,0000000003Hz,0000190169c,0000000.413s, 032.2C,00002191
2021-09-29 23:13:11 r, 18.78m,0000000002Hz,0000176729c,0000000.384s, 031.9C,00002191
2021-09-29 23:23:11 r, 18.81m,0000000002Hz,0000182158c,0000000.395s, 031.5C,00002191
2021-09-29 23:33:14 r, 18.91m,0000000002Hz,0000200562c,0000000.435s, 031.5C,00002191
2021-09-29 23:43:11 r, 18.82m,0000000002Hz,0000184256c,0000000.400s, 031.2C,00002191
2021-09-29 23:53:11 r, 19.00m,0000000003Hz,0000217033c,0000000.471s, 031.2C,00002191
